| time (UTC) | temp F | wind direction | speed knots | gust knots | rain 1hr in | rain 24hr in | rain mn in | humidity % | barometer mb |
| 20260506124708 | 56 | 188 | 0.0 | 0.0 | 0.00 | 0.00 | 0.00 | 46 | 1014.7 |
| 20260506124208 | 56 | 188 | 0.0 | 0.0 | 0.00 | 0.00 | 0.00 | 46 | 1014.6 |
| 20260506123708 | 56 | 188 | 0.0 | 0.0 | 0.00 | 0.00 | 0.00 | 46 | 1014.6 |
| 20260506123208 | 56 | 188 | 0.0 | 0.0 | 0.00 | 0.00 | 0.00 | 47 | 1014.5 |
| 20260506122708 | 55 | 188 | 0.0 | 0.0 | 0.00 | 0.00 | 0.00 | 48 | 1014.5 |
| 20260506122208 | 55 | 188 | 0.0 | 0.0 | 0.00 | 0.00 | 0.00 | 48 | 1014.3 |
| 20260506121708 | 55 | 188 | 0.0 | 3.5 | 0.00 | 0.00 | 0.00 | 48 | 1014.2 |
| 20260506121208 | 55 | 188 | 0.0 | 3.5 | 0.00 | 0.00 | 0.00 | 48 | 1014.2 |
| 20260506120708 | 55 | 159 | 0.0 | 0.0 | 0.00 | 0.00 | 0.00 | 47 | 1014.1 |
| 20260506120208 | 56 | 159 | 0.0 | 0.0 | 0.00 | 0.00 | 0.00 | 47 | 1014.0 |
| 20260506115708 | 56 | 159 | 0.0 | 0.0 | 0.00 | 0.00 | 0.00 | 47 | 1014.0 |
| 20260506115208 | 56 | 159 | 0.0 | 0.0 | 0.00 | 0.00 | 0.00 | 47 | 1014.0 |
| 20260506114708 | 56 | 159 | 0.0 | 0.0 | 0.00 | 0.00 | 0.00 | 46 | 1013.9 |
| 20260506114208 | 57 | 159 | 0.0 | 0.0 | 0.00 | 0.00 | 0.00 | 46 | 1013.9 |
| 20260506113708 | 57 | 159 | 0.0 | 3.5 | 0.00 | 0.00 | 0.00 | 45 | 1013.9 |
| 20260506113208 | 57 | 159 | 1.7 | 3.5 | 0.00 | 0.00 | 0.00 | 45 | 1013.9 |
| 20260506112708 | 58 | 250 | 0.0 | 0.0 | 0.00 | 0.00 | 0.00 | 44 | 1014.0 |
| 20260506112208 | 59 | 250 | 0.0 | 4.3 | 0.00 | 0.00 | 0.00 | 42 | 1014.0 |
| 20260506111708 | 59 | 250 | 0.0 | 7.0 | 0.00 | 0.00 | 0.00 | 42 | 1014.0 |
| 20260506111208 | 58 | 135 | 2.6 | 7.0 | 0.00 | 0.00 | 0.00 | 43 | 1013.9 |
| 20260506110708 | 57 | 186 | 0.0 | 0.0 | 0.00 | 0.00 | 0.00 | 45 | 1013.9 |
| 20260506110208 | 57 | 186 | 0.0 | 0.0 | 0.00 | 0.00 | 0.00 | 45 | 1013.9 |
| 20260506105708 | 57 | 186 | 0.0 | 0.0 | 0.00 | 0.00 | 0.00 | 44 | 1013.8 |
| 20260506105208 | 58 | 186 | 0.0 | 0.0 | 0.00 | 0.00 | 0.00 | 44 | 1013.8 |
| 20260506104708 | 59 | 186 | 0.0 | 6.1 | 0.00 | 0.00 | 0.00 | 43 | 1013.6 |
| 20260506104408 | 59 | 186 | 0.0 | 6.1 | 0.00 | 0.00 | 0.00 | 42 | 1013.6 |
| 20260506103908 | 59 | 153 | 3.5 | 6.1 | 0.00 | 0.00 | 0.00 | 42 | 1013.6 |
| 20260506103212 | 60 | 180 | 0.0 | 3.5 | 0.00 | 0.00 | 0.00 | 41 | 1013.6 |
| 20260506102712 | 60 | 180 | 0.0 | 4.3 | 0.00 | 0.00 | 0.00 | 41 | 1013.5 |
| 20260506102212 | 60 | 177 | 0.9 | 4.3 | 0.00 | 0.00 | 0.00 | 41 | 1013.5 |
| 20260506101712 | 60 | 217 | 0.0 | 2.6 | 0.00 | 0.00 | 0.00 | 41 | 1013.5 |
| 20260506101212 | 61 | 217 | 0.0 | 6.1 | 0.00 | 0.00 | 0.00 | 40 | 1013.5 |
| 20260506100712 | 61 | 193 | 0.0 | 7.8 | 0.00 | 0.00 | 0.00 | 39 | 1013.5 |
| 20260506100212 | 61 | 170 | 4.3 | 9.6 | 0.00 | 0.00 | 0.00 | 40 | 1013.3 |
| 20260506095712 | 60 | 193 | 6.1 | 9.6 | 0.00 | 0.00 | 0.00 | 41 | 1013.3 |
| 20260506095212 | 59 | 166 | 3.5 | 7.0 | 0.00 | 0.00 | 0.00 | 42 | 1013.3 |
| 20260506094712 | 60 | 153 | 3.5 | 6.1 | 0.00 | 0.00 | 0.00 | 42 | 1013.3 |
| 20260506094212 | 60 | 166 | 3.5 | 6.1 | 0.00 | 0.00 | 0.00 | 42 | 1013.2 |
| 20260506093712 | 59 | 138 | 3.5 | 6.1 | 0.00 | 0.00 | 0.00 | 42 | 1013.2 |
| 20260506093212 | 60 | 166 | 3.5 | 5.2 | 0.00 | 0.00 | 0.00 | 42 | 1013.2 |
| 20260506092712 | 60 | 155 | 0.0 | 5.2 | 0.00 | 0.00 | 0.00 | 41 | 1013.1 |
| 20260506092212 | 60 | 179 | 2.6 | 5.2 | 0.00 | 0.00 | 0.00 | 40 | 1013.1 |
| 20260506091712 | 60 | 181 | 1.7 | 4.3 | 0.00 | 0.00 | 0.00 | 40 | 1013.1 |
| 20260506091212 | 60 | 166 | 2.6 | 3.5 | 0.00 | 0.00 | 0.00 | 40 | 1013.1 |
| 20260506090712 | 61 | 184 | 0.0 | 7.0 | 0.00 | 0.00 | 0.00 | 39 | 1012.9 |
| 20260506090212 | 61 | 184 | 3.5 | 7.8 | 0.00 | 0.00 | 0.00 | 38 | 1012.9 |
| 20260506085712 | 62 | 212 | 4.3 | 7.8 | 0.00 | 0.00 | 0.00 | 38 | 1012.9 |
| 20260506085212 | 62 | 169 | 2.6 | 7.8 | 0.00 | 0.00 | 0.00 | 37 | 1012.8 |
| 20260506084712 | 62 | 205 | 4.3 | 8.7 | 0.00 | 0.00 | 0.00 | 37 | 1012.8 |
| 20260506084212 | 62 | 177 | 5.2 | 11.3 | 0.00 | 0.00 | 0.00 | 37 | 1012.8 |
| 20260506083712 | 62 | 155 | 6.1 | 11.3 | 0.00 | 0.00 | 0.00 | 37 | 1012.7 |
| 20260506083212 | 61 | 204 | 4.3 | 10.4 | 0.00 | 0.00 | 0.00 | 37 | 1012.7 |
| 20260506082712 | 61 | 172 | 3.5 | 6.1 | 0.00 | 0.00 | 0.00 | 38 | 1012.7 |
| 20260506082212 | 61 | 176 | 3.5 | 7.0 | 0.00 | 0.00 | 0.00 | 37 | 1012.7 |
| 20260506081712 | 61 | 177 | 4.3 | 7.8 | 0.00 | 0.00 | 0.00 | 37 | 1012.7 |
| 20260506081212 | 61 | 152 | 5.2 | 7.8 | 0.00 | 0.00 | 0.00 | 36 | 1012.7 |
| 20260506080712 | 61 | 176 | 5.2 | 7.8 | 0.00 | 0.00 | 0.00 | 36 | 1012.7 |
| 20260506080212 | 61 | 200 | 4.3 | 7.8 | 0.00 | 0.00 | 0.00 | 36 | 1012.7 |
| 20260506073212 | 61 | 170 | 3.5 | 5.2 | 0.00 | 0.00 | 0.00 | 35 | 1012.6 |
| 20260506072712 | 61 | 145 | 3.5 | 6.1 | 0.00 | 0.00 | 0.00 | 35 | 1012.6 |
| 20260506072212 | 61 | 152 | 4.3 | 7.8 | 0.00 | 0.00 | 0.00 | 34 | 1012.5 |
| 20260506071712 | 62 | 177 | 4.3 | 7.8 | 0.00 | 0.00 | 0.00 | 33 | 1012.5 |
| 20260506071212 | 62 | 190 | 4.3 | 7.0 | 0.00 | 0.00 | 0.00 | 33 | 1012.5 |
| 20260506070711 | 62 | 187 | 3.5 | 6.1 | 0.00 | 0.00 | 0.00 | 33 | 1012.6 |
| 20260506070211 | 62 | 231 | 2.6 | 6.1 | 0.00 | 0.00 | 0.00 | 33 | 1012.5 |
| 20260506062211 | 63 | 167 | 6.1 | 9.6 | 0.00 | 0.00 | 0.00 | 30 | 1012.0 |
| 20260506061711 | 63 | 146 | 3.5 | 7.0 | 0.00 | 0.00 | 0.00 | 31 | 1012.0 |
| 20260506061211 | 63 | 191 | 4.3 | 9.6 | 0.00 | 0.00 | 0.00 | 31 | 1011.9 |
| 20260506060711 | 63 | 203 | 5.2 | 9.6 | 0.00 | 0.00 | 0.00 | 30 | 1011.9 |
| 20260506060211 | 64 | 194 | 5.2 | 7.8 | 0.00 | 0.00 | 0.00 | 30 | 1011.9 |
| 20260506051211 | 65 | 190 | 5.2 | 10.4 | 0.00 | 0.00 | 0.00 | 31 | 1011.4 |
| 20260506050711 | 65 | 194 | 6.1 | 10.4 | 0.00 | 0.00 | 0.00 | 31 | 1011.4 |
| 20260506050211 | 65 | 198 | 6.1 | 8.7 | 0.00 | 0.00 | 0.00 | 32 | 1011.4 |
| 20260506044711 | 65 | 163 | 6.1 | 10.4 | 0.00 | 0.00 | 0.00 | 33 | 1011.2 |
| 20260506044211 | 66 | 180 | 5.2 | 8.7 | 0.00 | 0.00 | 0.00 | 34 | 1011.2 |
| 20260506043711 | 65 | 180 | 5.2 | 8.7 | 0.00 | 0.00 | 0.00 | 34 | 1011.2 |
| 20260506043211 | 66 | 190 | 4.3 | 7.8 | 0.00 | 0.00 | 0.00 | 34 | 1011.1 |
| 20260506042711 | 66 | 156 | 4.3 | 7.8 | 0.00 | 0.00 | 0.00 | 34 | 1011.1 |
| 20260506042211 | 66 | 170 | 5.2 | 7.0 | 0.00 | 0.00 | 0.00 | 34 | 1011.1 |
| 20260506041711 | 66 | 198 | 4.3 | 6.1 | 0.00 | 0.00 | 0.00 | 34 | 1011.0 |
| 20260506041211 | 66 | 179 | 4.3 | 6.1 | 0.00 | 0.00 | 0.00 | 34 | 1011.0 |
| 20260506040711 | 66 | 190 | 3.5 | 7.8 | 0.00 | 0.00 | 0.00 | 34 | 1010.8 |
| 20260506040211 | 66 | 187 | 3.5 | 7.8 | 0.00 | 0.00 | 0.00 | 34 | 1010.7 |
| 20260506035711 | 66 | 174 | 4.3 | 6.1 | 0.00 | 0.00 | 0.00 | 34 | 1010.7 |
| 20260506035211 | 66 | 195 | 4.3 | 6.1 | 0.00 | 0.00 | 0.00 | 34 | 1010.7 |
| 20260506034711 | 66 | 179 | 3.5 | 7.0 | 0.00 | 0.00 | 0.00 | 34 | 1010.6 |
| 20260506034211 | 66 | 191 | 3.5 | 7.0 | 0.00 | 0.00 | 0.00 | 34 | 1010.5 |
| 20260506033711 | 66 | 173 | 4.3 | 7.0 | 0.00 | 0.00 | 0.00 | 35 | 1010.5 |
| 20260506033211 | 66 | 186 | 3.5 | 5.2 | 0.00 | 0.00 | 0.00 | 35 | 1010.5 |
| 20260506032711 | 67 | 214 | 2.6 | 4.3 | 0.00 | 0.00 | 0.00 | 34 | 1010.5 |
| 20260506032211 | 67 | 190 | 2.6 | 5.2 | 0.00 | 0.00 | 0.00 | 34 | 1010.5 |
| 20260506031711 | 67 | 190 | 3.5 | 7.8 | 0.00 | 0.00 | 0.00 | 34 | 1010.4 |
| 20260506031211 | 67 | 184 | 3.5 | 7.8 | 0.00 | 0.00 | 0.00 | 33 | 1010.4 |
| 20260506030711 | 67 | 188 | 3.5 | 7.8 | 0.00 | 0.00 | 0.00 | 33 | 1010.3 |
| 20260506030211 | 67 | 201 | 3.5 | 7.0 | 0.00 | 0.00 | 0.00 | 34 | 1010.3 |
| 20260506025711 | 67 | 184 | 3.5 | 7.0 | 0.00 | 0.00 | 0.00 | 34 | 1010.3 |
| 20260506025211 | 67 | 215 | 2.6 | 6.1 | 0.00 | 0.00 | 0.00 | 34 | 1010.1 |
| 20260506024711 | 67 | 195 | 3.5 | 7.0 | 0.00 | 0.00 | 0.00 | 34 | 1010.1 |
| 20260506024211 | 67 | 187 | 4.3 | 7.0 | 0.00 | 0.00 | 0.00 | 34 | 1010.1 |
| 20260506023711 | 67 | 197 | 1.7 | 6.1 | 0.00 | 0.00 | 0.00 | 34 | 1009.9 |
| 20260506023211 | 67 | 180 | 3.5 | 5.2 | 0.00 | 0.00 | 0.00 | 34 | 1010.0 |
| 20260506022711 | 68 | 173 | 0.0 | 6.1 | 0.00 | 0.00 | 0.00 | 33 | 1009.9 |
| 20260506022211 | 68 | 181 | 2.6 | 7.0 | 0.00 | 0.00 | 0.00 | 33 | 1009.9 |
| 20260506021711 | 68 | 181 | 3.5 | 7.8 | 0.00 | 0.00 | 0.00 | 33 | 1009.9 |
| 20260506021211 | 68 | 198 | 5.2 | 7.8 | 0.00 | 0.00 | 0.00 | 33 | 1009.9 |
| 20260506020711 | 68 | 203 | 3.5 | 7.0 | 0.00 | 0.00 | 0.00 | 33 | 1009.8 |
| 20260506020211 | 68 | 183 | 3.5 | 7.0 | 0.00 | 0.00 | 0.00 | 32 | 1009.8 |
| 20260506015711 | 69 | 186 | 4.3 | 6.1 | 0.00 | 0.00 | 0.00 | 32 | 1009.8 |
| 20260506015211 | 69 | 204 | 4.3 | 6.1 | 0.00 | 0.00 | 0.00 | 32 | 1009.8 |
| 20260506014711 | 69 | 204 | 3.5 | 7.8 | 0.00 | 0.00 | 0.00 | 31 | 1009.7 |
| 20260506014211 | 70 | 205 | 5.2 | 8.7 | 0.00 | 0.00 | 0.00 | 31 | 1009.7 |
| 20260506013711 | 70 | 179 | 6.1 | 8.7 | 0.00 | 0.00 | 0.00 | 30 | 1009.6 |
| 20260506013211 | 70 | 174 | 5.2 | 8.7 | 0.00 | 0.00 | 0.00 | 30 | 1009.6 |
| 20260506012711 | 70 | 174 | 5.2 | 9.6 | 0.00 | 0.00 | 0.00 | 30 | 1009.7 |
| 20260506012211 | 71 | 195 | 7.8 | 9.6 | 0.00 | 0.00 | 0.00 | 29 | 1009.7 |
| 20260506011711 | 70 | 225 | 5.2 | 11.3 | 0.00 | 0.00 | 0.00 | 29 | 1009.6 |
| 20260506011211 | 71 | 187 | 5.2 | 12.2 | 0.00 | 0.00 | 0.00 | 29 | 1009.7 |
| 20260506010711 | 71 | 162 | 4.3 | 12.2 | 0.00 | 0.00 | 0.00 | 29 | 1009.7 |
| 20260506010211 | 71 | 201 | 7.0 | 12.2 | 0.00 | 0.00 | 0.00 | 28 | 1009.7 |
| 20260506005711 | 71 | 212 | 7.8 | 12.2 | 0.00 | 0.00 | 0.00 | 28 | 1009.6 |
| 20260506005211 | 71 | 212 | 7.0 | 12.2 | 0.00 | 0.00 | 0.00 | 27 | 1009.7 |
| 20260506004711 | 71 | 236 | 4.3 | 11.3 | 0.00 | 0.00 | 0.00 | 27 | 1009.7 |
| 20260506004211 | 71 | 236 | 2.6 | 14.8 | 0.00 | 0.00 | 0.00 | 27 | 1009.7 |
| 20260506003711 | 71 | 201 | 7.0 | 14.8 | 0.00 | 0.00 | 0.00 | 26 | 1009.4 |
| 20260506003211 | 72 | 228 | 5.2 | 12.2 | 0.00 | 0.00 | 0.00 | 26 | 1009.4 |
| 20260506002711 | 72 | 194 | 5.2 | 13.9 | 0.00 | 0.00 | 0.00 | 27 | 1009.4 |
| 20260506002211 | 72 | 222 | 5.2 | 13.9 | 0.00 | 0.00 | 0.00 | 26 | 1009.4 |
| 20260506001711 | 72 | 257 | 5.2 | 17.4 | 0.00 | 0.00 | 0.00 | 26 | 1009.6 |
| 20260506001211 | 72 | 260 | 3.5 | 17.4 | 0.00 | 0.00 | 0.00 | 26 | 1009.6 |
| 20260506000711 | 72 | 224 | 5.2 | 12.2 | 0.00 | 0.00 | 0.00 | 26 | 1009.7 |
| 20260506000212 | 72 | 239 | 6.1 | 13.0 | 0.00 | 0.00 | 0.00 | 26 | 1009.6 |
| 20260505235711 | 72 | 194 | 7.0 | 13.0 | 0.00 | 0.00 | 0.00 | 26 | 1009.6 |
| 20260505235211 | 71 | 188 | 2.6 | 15.6 | 0.00 | 0.00 | 0.00 | 29 | 1009.6 |
| 20260505234711 | 71 | 211 | 11.3 | 15.6 | 0.00 | 0.00 | 0.00 | 31 | 1009.7 |
| 20260505234211 | 71 | 200 | 7.8 | 13.0 | 0.00 | 0.00 | 0.00 | 32 | 1009.7 |
| 20260505233711 | 71 | 170 | 8.7 | 13.9 | 0.00 | 0.00 | 0.00 | 32 | 1009.8 |
| 20260505233211 | 71 | 193 | 8.7 | 17.4 | 0.00 | 0.00 | 0.00 | 33 | 1009.8 |
| 20260505232711 | 71 | 204 | 8.7 | 17.4 | 0.00 | 0.00 | 0.00 | 32 | 1009.7 |
| 20260505232211 | 71 | 226 | 8.7 | 14.8 | 0.00 | 0.00 | 0.00 | 34 | 1009.7 |
| 20260505231711 | 70 | 198 | 9.6 | 16.5 | 0.00 | 0.00 | 0.00 | 34 | 1009.7 |
| 20260505231211 | 70 | 156 | 8.7 | 16.5 | 0.00 | 0.00 | 0.00 | 34 | 1009.6 |
| 20260505230711 | 70 | 169 | 9.6 | 16.5 | 0.00 | 0.00 | 0.00 | 34 | 1009.7 |
| 20260505230211 | 70 | 172 | 11.3 | 17.4 | 0.00 | 0.00 | 0.00 | 34 | 1009.9 |
| 20260505225711 | 70 | 172 | 12.2 | 17.4 | 0.00 | 0.00 | 0.00 | 34 | 1009.9 |
| 20260505225211 | 71 | 207 | 7.8 | 15.6 | 0.00 | 0.00 | 0.00 | 33 | 1010.0 |
| 20260505224711 | 71 | 219 | 10.4 | 16.5 | 0.00 | 0.00 | 0.00 | 34 | 1010.1 |
| 20260505224211 | 71 | 156 | 10.4 | 16.5 | 0.00 | 0.00 | 0.00 | 34 | 1010.1 |
| 20260505223711 | 71 | 229 | 8.7 | 14.8 | 0.00 | 0.00 | 0.00 | 34 | 1010.0 |
| 20260505223211 | 70 | 201 | 7.8 | 14.8 | 0.00 | 0.00 | 0.00 | 35 | 1010.3 |
| 20260505222711 | 70 | 197 | 5.2 | 16.5 | 0.00 | 0.00 | 0.00 | 35 | 1010.4 |
| 20260505222211 | 70 | 219 | 9.6 | 16.5 | 0.00 | 0.00 | 0.00 | 35 | 1010.4 |
| 20260505221711 | 70 | 217 | 7.8 | 17.4 | 0.00 | 0.00 | 0.00 | 35 | 1010.5 |
| 20260505221211 | 70 | 204 | 10.4 | 17.4 | 0.00 | 0.00 | 0.00 | 35 | 1010.6 |
| 20260505220710 | 70 | 201 | 9.6 | 15.6 | 0.00 | 0.00 | 0.00 | 35 | 1010.8 |
| 20260505220210 | 70 | 204 | 10.4 | 15.6 | 0.00 | 0.00 | 0.00 | 35 | 1010.8 |
| 20260505215710 | 70 | 240 | 8.7 | 15.6 | 0.00 | 0.00 | 0.00 | 35 | 1011.0 |
| 20260505215210 | 71 | 238 | 2.6 | 13.9 | 0.00 | 0.00 | 0.00 | 35 | 1011.0 |
| 20260505214710 | 71 | 239 | 3.5 | 13.9 | 0.00 | 0.00 | 0.00 | 35 | 1011.0 |
| 20260505214210 | 71 | 243 | 7.0 | 13.0 | 0.00 | 0.00 | 0.00 | 34 | 1011.1 |
| 20260505213710 | 71 | 195 | 2.6 | 13.0 | 0.00 | 0.00 | 0.00 | 36 | 1011.1 |
| 20260505213210 | 70 | 184 | 7.0 | 16.5 | 0.00 | 0.00 | 0.00 | 35 | 1011.2 |
| 20260505212710 | 70 | 156 | 8.7 | 16.5 | 0.00 | 0.00 | 0.00 | 36 | 1011.3 |
| 20260505212210 | 70 | 226 | 6.1 | 16.5 | 0.00 | 0.00 | 0.00 | 37 | 1011.4 |
| 20260505211710 | 70 | 160 | 10.4 | 16.5 | 0.00 | 0.00 | 0.00 | 35 | 1011.5 |
| 20260505211210 | 70 | 210 | 3.5 | 13.0 | 0.00 | 0.00 | 0.00 | 37 | 1011.7 |
| 20260505210710 | 70 | 215 | 6.1 | 13.0 | 0.00 | 0.00 | 0.00 | 37 | 1011.8 |
| 20260505210210 | 70 | 172 | 7.0 | 12.2 | 0.00 | 0.00 | 0.00 | 38 | 1011.9 |
| 20260505205710 | 70 | 219 | 7.8 | 13.9 | 0.00 | 0.00 | 0.00 | 38 | 1012.0 |
| 20260505205210 | 69 | 208 | 3.5 | 13.9 | 0.00 | 0.00 | 0.00 | 39 | 1012.1 |
| 20260505204710 | 69 | 197 | 7.8 | 12.2 | 0.00 | 0.00 | 0.00 | 40 | 1012.2 |
| 20260505204210 | 68 | 195 | 6.1 | 14.8 | 0.00 | 0.00 | 0.00 | 40 | 1012.4 |
| 20260505203710 | 68 | 222 | 7.0 | 14.8 | 0.00 | 0.00 | 0.00 | 40 | 1012.5 |
| 20260505203210 | 68 | 222 | 7.8 | 14.8 | 0.00 | 0.00 | 0.00 | 40 | 1012.5 |
| 20260505202710 | 68 | 200 | 7.0 | 14.8 | 0.00 | 0.00 | 0.00 | 41 | 1012.6 |
| 20260505202210 | 68 | 235 | 4.3 | 14.8 | 0.00 | 0.00 | 0.00 | 42 | 1012.7 |
| 20260505201710 | 67 | 214 | 10.4 | 14.8 | 0.00 | 0.00 | 0.00 | 43 | 1012.8 |
| 20260505201210 | 67 | 259 | 4.3 | 17.4 | 0.00 | 0.00 | 0.00 | 43 | 1012.9 |
| 20260505200710 | 67 | 231 | 7.0 | 17.4 | 0.00 | 0.00 | 0.00 | 44 | 1012.9 |
| 20260505200210 | 67 | 218 | 7.8 | 15.6 | 0.00 | 0.00 | 0.00 | 44 | 1012.8 |
| 20260505195710 | 66 | 222 | 5.2 | 16.5 | 0.00 | 0.00 | 0.00 | 43 | 1012.8 |
| 20260505195210 | 67 | 218 | 7.0 | 16.5 | 0.00 | 0.00 | 0.00 | 43 | 1012.7 |
| 20260505194710 | 67 | 226 | 3.5 | 10.4 | 0.00 | 0.00 | 0.00 | 43 | 1012.8 |
| 20260505194210 | 67 | 232 | 6.1 | 17.4 | 0.00 | 0.00 | 0.00 | 43 | 1012.8 |
| 20260505193710 | 67 | 225 | 5.2 | 17.4 | 0.00 | 0.00 | 0.00 | 42 | 1012.8 |
| 20260505193210 | 67 | 250 | 4.3 | 13.9 | 0.00 | 0.00 | 0.00 | 42 | 1012.7 |
| 20260505192710 | 67 | 197 | 6.1 | 16.5 | 0.00 | 0.00 | 0.00 | 41 | 1012.9 |
| 20260505192210 | 67 | 269 | 8.7 | 16.5 | 0.00 | 0.00 | 0.00 | 40 | 1012.7 |
| 20260505191710 | 68 | 271 | 5.2 | 10.4 | 0.00 | 0.00 | 0.00 | 39 | 1012.7 |
| 20260505191210 | 67 | 263 | 2.6 | 10.4 | 0.00 | 0.00 | 0.00 | 40 | 1012.6 |
| 20260505190710 | 67 | 158 | 6.1 | 10.4 | 0.00 | 0.00 | 0.00 | 40 | 1012.6 |
| 20260505190210 | 67 | 252 | 6.1 | 10.4 | 0.00 | 0.00 | 0.00 | 39 | 1012.6 |
| 20260505185710 | 67 | 229 | 5.2 | 11.3 | 0.00 | 0.00 | 0.00 | 39 | 1012.5 |
| 20260505185210 | 67 | 226 | 4.3 | 11.3 | 0.00 | 0.00 | 0.00 | 38 | 1012.2 |
| 20260505184710 | 67 | 210 | 5.2 | 11.3 | 0.00 | 0.00 | 0.00 | 38 | 1012.2 |
| 20260505184210 | 67 | 215 | 6.1 | 14.8 | 0.00 | 0.00 | 0.00 | 38 | 1012.6 |
| 20260505183710 | 67 | 169 | 7.0 | 14.8 | 0.00 | 0.00 | 0.00 | 38 | 1012.6 |
| 20260505183210 | 68 | 170 | 9.6 | 13.9 | 0.00 | 0.00 | 0.00 | 35 | 1012.7 |
| 20260505182710 | 70 | 218 | 3.5 | 13.9 | 0.00 | 0.00 | 0.00 | 32 | 1012.5 |
| 20260505182210 | 70 | 259 | 0.9 | 7.0 | 0.00 | 0.00 | 0.00 | 32 | 1012.4 |
| 20260505181710 | 70 | 255 | 0.0 | 3.5 | 0.00 | 0.00 | 0.00 | 33 | 1012.1 |
| 20260505181210 | 69 | 255 | 0.0 | 7.0 | 0.00 | 0.00 | 0.00 | 33 | 1012.2 |
| 20260505180710 | 68 | 228 | 0.0 | 7.0 | 0.00 | 0.00 | 0.00 | 34 | 1012.4 |
| 20260505180210 | 68 | 197 | 2.6 | 8.7 | 0.00 | 0.00 | 0.00 | 33 | 1012.5 |
| 20260505175710 | 68 | 193 | 3.5 | 9.6 | 0.00 | 0.00 | 0.00 | 33 | 1012.6 |
| 20260505175210 | 67 | 191 | 4.3 | 10.4 | 0.00 | 0.00 | 0.00 | 33 | 1012.6 |
| 20260505174710 | 67 | 194 | 7.8 | 10.4 | 0.00 | 0.00 | 0.00 | 32 | 1012.6 |
| 20260505174210 | 67 | 208 | 4.3 | 11.3 | 0.00 | 0.00 | 0.00 | 33 | 1012.5 |
| 20260505173710 | 67 | 197 | 6.1 | 12.2 | 0.00 | 0.00 | 0.00 | 33 | 1012.6 |
| 20260505173210 | 67 | 219 | 4.3 | 12.2 | 0.00 | 0.00 | 0.00 | 33 | 1012.6 |
| 20260505172710 | 67 | 195 | 7.0 | 12.2 | 0.00 | 0.00 | 0.00 | 34 | 1012.6 |
| 20260505172210 | 68 | 200 | 7.0 | 12.2 | 0.00 | 0.00 | 0.00 | 34 | 1012.6 |
| 20260505171710 | 68 | 177 | 8.7 | 12.2 | 0.00 | 0.00 | 0.00 | 34 | 1012.5 |
| 20260505171210 | 68 | 228 | 4.3 | 9.6 | 0.00 | 0.00 | 0.00 | 31 | 1012.5 |
| 20260505170710 | 68 | 193 | 6.1 | 10.4 | 0.00 | 0.00 | 0.00 | 31 | 1012.5 |
| 20260505170210 | 68 | 219 | 5.2 | 10.4 | 0.00 | 0.00 | 0.00 | 31 | 1012.5 |
| 20260505165710 | 68 | 155 | 2.6 | 8.7 | 0.00 | 0.00 | 0.00 | 31 | 1012.5 |
| 20260505165210 | 68 | 174 | 6.1 | 10.4 | 0.00 | 0.00 | 0.00 | 32 | 1012.5 |
| 20260505164710 | 67 | 184 | 6.1 | 10.4 | 0.00 | 0.00 | 0.00 | 32 | 1012.5 |
| 20260505164210 | 68 | 190 | 6.1 | 9.6 | 0.00 | 0.00 | 0.00 | 32 | 1012.5 |
| 20260505163710 | 68 | 191 | 1.7 | 7.8 | 0.00 | 0.00 | 0.00 | 33 | 1012.2 |
| 20260505163210 | 68 | 211 | 2.6 | 7.8 | 0.00 | 0.00 | 0.00 | 34 | 1012.2 |
| 20260505162710 | 67 | 188 | 2.6 | 7.8 | 0.00 | 0.00 | 0.00 | 34 | 1012.2 |
| 20260505162210 | 67 | 228 | 0.0 | 5.2 | 0.00 | 0.00 | 0.00 | 35 | 1012.4 |
| 20260505161710 | 66 | 201 | 0.0 | 7.0 | 0.00 | 0.00 | 0.00 | 35 | 1012.6 |
| 20260505161210 | 66 | 228 | 4.3 | 8.7 | 0.00 | 0.00 | 0.00 | 35 | 1012.7 |
| 20260505160710 | 66 | 129 | 0.0 | 8.7 | 0.00 | 0.00 | 0.00 | 35 | 1012.7 |
| 20260505160210 | 66 | 231 | 3.5 | 7.0 | 0.00 | 0.00 | 0.00 | 35 | 1012.9 |
| 20260505153210 | 66 | 193 | 4.3 | 7.8 | 0.00 | 0.00 | 0.00 | 35 | 1012.4 |
| 20260505152710 | 66 | 165 | 3.5 | 8.7 | 0.00 | 0.00 | 0.00 | 36 | 1012.5 |
| 20260505152210 | 66 | 180 | 5.2 | 8.7 | 0.00 | 0.00 | 0.00 | 37 | 1012.5 |
| 20260505151710 | 66 | 197 | 4.3 | 8.7 | 0.00 | 0.00 | 0.00 | 37 | 1012.5 |
| 20260505151210 | 66 | 222 | 6.1 | 7.8 | 0.00 | 0.00 | 0.00 | 37 | 1012.4 |
| 20260505150710 | 66 | 193 | 4.3 | 8.7 | 0.00 | 0.00 | 0.00 | 37 | 1012.2 |
| 20260505150210 | 66 | 208 | 4.3 | 9.6 | 0.00 | 0.00 | 0.00 | 37 | 1012.2 |
| 20260505140210 | 65 | 172 | 5.2 | 8.7 | 0.00 | 0.00 | 0.00 | 37 | 1012.5 |
| 20260505130210 | 65 | 156 | 0.0 | 3.5 | 0.00 | 0.00 | 0.00 | 35 | 1012.0 |